Tracking 23757 objects as of 26-Oct-2021
HD Live streaming from Space Station
objects crossing your sky now

USA 136

Track USA 136 now!
USA 136 is classified as:


NORAD ID: 25034
Int'l Code: 1997-068A
Perigee: 3,839.6 km
Apogee: 36,533.3 km
Inclination: 63.6 °
Period: 717.9 minutes
Semi major axis: 26557 km
RCS: Unknown
Launch date: November 8, 1997
Source: United States (US)
Launch site: AIR FORCE EASTERN TEST RANGE (AFETR)

Signals intelligence; surveillance of cellular phones.
aabbcc
Your satellite tracking list
Your tracking list is empty




NASA's NSSDC Master Catalog

Two Line Element Set (TLE):
1 25034U 97068A   21127.76499634 0.00000000  00000-0  00000-0 0    08
2 25034  63.5578 110.4179 6155279 278.3930  20.4459  2.00596320    01
Source of the keplerian elements: McCants